Regional Weather Roundup
Issued by NWS

Home | Current Version | Previous Version | Text Only | Print | Product List | Glossary On
Versions: 1 2 3 4 5 6 7 8 9 10 11 12 13 14 15 16 17 18 19 20 21 22 23 24 25 26 27 28 29 30 31 32 33 34 35 36 37 38 39 40 41 42 43 44 45 46 47 48 49 50
000
ASUS43 KDTX 021910
RWRMI
MICHIGAN HOURLY REGIONAL WEATHER ROUNDUP
NATIONAL WEATHER SERVICE DETROIT/PONTIAC MI
300 PM EDT SUN AUG 02 2015

NOTE: "FAIR" INDICATES FEW OR NO CLOUDS BELOW 12,000 FEET WITH NO
SIGNIFICANT WEATHER AND/OR OBSTRUCTION TO VISIBILITY.

MIZ047>049-052>055-059>063-066>070-074>076-081>083-022000-
SOUTHEAST LOWER MICHIGAN

CITY           SKY/WX    TMP DP  RH WIND       PRES   REMARKS
ADRIAN         SUNNY     88  62  41 W16G26    29.82F
ALMA           PTSUNNY   87  67  51 W16G29    29.68F HX  90
ANN ARBOR      SUNNY     90  62  39 SW15G29   29.78F HX  90
BAD AXE        LGT RAIN  70  58  67 NW29G38   29.75R
DETROIT CITY   SUNNY     90  62  39 SW21G28   29.76F HX  90
DETROIT        MOSUNNY   91  62  37 S25G33    29.79F HX  91
FLINT          MOSUNNY   92  64  39 SW18G28   29.71F HX  93
GROSSE ILE     SUNNY     90  61  37 SW14G25   29.78F
HILLSDALE      SUNNY     87  64  45 W10G22    29.83F
HOWELL         SUNNY     89  60  37 SW20G29   29.76F

CITY           SKY/WX    TMP DP  RH WIND       PRES   REMARKS
JACKSON        MOSUNNY   87  66  49 SW15G26   29.80F
LAMBERTVILLE   SUNNY     88  61  40 SW13G26   29.82F
LANSING        SUNNY     90  64  42 SW21G35   29.74F HX  91
LAPEER         NOT AVBL
MASON          SUNNY     85  65  50 SW14G25   29.76F
MONROE         SUNNY     88  65  45 SW15G23   29.79F HX  90
MT. CLEMENS    MOSUNNY   91  62  37 SW17G26   29.74F HX  91
PONTIAC        MOSUNNY   89  57  33 SW20G26   29.75F
PORT HOPE        N/A     68  63  84 NW30G46   29.73R
PORT HURON     SUNNY     88  66  48 S16G24    29.72F HX  90
TRI CITIES     PTSUNNY   76  66  71 SW13G33   29.67R THUNDER
YPSILANTI      SUNNY     95  62  33 SW28G33   29.78F HX  96
$$
MIZ043>046-050>051-056>058-064>065-071>073-077>080-022000-
SOUTHWEST LOWER MICHIGAN

CITY           SKY/WX    TMP DP  RH WIND       PRES   REMARKS
BATTLE CREEK   SUNNY     91  66  43 W22G30    29.79F HX  93
BENTON HARBOR  MOSUNNY   91  65  41 SW22G31   29.77F HX  93
BIG RAPIDS     PTSUNNY   82  69  64 SW18G29   29.65F
COLDWATER      SUNNY     85  65  49 SW20G25   29.81F
HOLLAND        PTSUNNY   88  66  48 SW25G33   29.75F HX  90
GRAND RAPIDS   PTSUNNY   88  64  44 SW28G36   29.73F
KALAMAZOO      SUNNY     90  64  42 SW16G29   29.78F HX  91
MARSHALL       MOSUNNY   89  67  48 SW18G25   29.79F HX  91
MUSKEGON       PTSUNNY   86  66  51 S17G28    29.69F
$$
MIZ016>042-022000-
NORTHERN LOWER MICHIGAN

CITY           SKY/WX    TMP DP  RH WIND       PRES   REMARKS
ALPENA         CLOUDY    65  61  87 SW3       29.64F
BEAVER ISLAND  LGT RAIN  65  63  93 E3        29.57F
BELLAIRE       HVY RAIN  70  66  88 CALM      29.64R
CADILLAC       CLOUDY    82  67  61 SW17G30   29.64F
CHARLEVOIX     LGT RAIN  70  64  83 W12G18    29.65F
FRANKFORT      CLOUDY    74  69  85 S10G16    29.62R
GRAYLING       LGT RAIN  70  67  90 W5        29.64S
HARBOR SPRINGS CLOUDY    69  67  92 W10G21    29.66R
HOUGHTON LAKE  CLOUDY    75  69  81 VRB7      29.65F
MANISTEE       PTSUNNY   82  66  57 SW16G22   29.62S
OSCODA         LGT RAIN  65  63  94 NE6       29.63F
PELLSTON       LGT RAIN  71  65  81 W17G25    29.66R
TRAVERSE CITY  TSTM      74  66  76 NW12      29.66R
$$
MIZ007>008-015-022000-
EASTERN UPPER MICHIGAN

CITY           SKY/WX    TMP DP  RH WIND       PRES   REMARKS
KINROSS        CLOUDY    72  64  78 SW8G16    29.61S
MACKINAC ISLAN RAIN      66  65  95 SW10G25   29.65R
NEWBERRY       LGT RAIN  66  64  94 SW10      29.61S
S. S. MARIE    LGT RAIN  69  63  81 SW8       29.58R
$$
MIZ004>006-011>014-085-022000-
CENTRAL UPPER MICHIGAN

CITY           SKY/WX    TMP DP  RH WIND       PRES   REMARKS
MANISTIQUE     CLOUDY    68  66  94 N3        29.57F
ESCANABA       CLOUDY    66  64  94 W5        29.64R THUNDER
MENOMINEE      CLOUDY    70  61  73 N25G59    29.68R THUNDER
SAWYER-GWINN   PTSUNNY   66  63  88 S7        29.59F
$$
MIZ001>003-009>011-084-022000-
WESTERN UPPER MICHIGAN

CITY           SKY/WX    TMP DP  RH WIND       PRES   REMARKS
IRON MOUNTAIN  LGT RAIN  63  61  93 SE5       29.59F
HOUGHTON       LGT RAIN  70  57  63 W20       29.60R
COPPER HARBOR    N/A     69  59  70 N16       29.58S
IRONWOOD       MOSUNNY   70  63  78 NW10G16   29.61R
$$

ABBREVIATIONS USED IN REMARKS
   TC - TEMPERATURE IN CELSIUS
  WCI - WIND CHILL INDEX
   HX - HEAT INDEX
  VSB - VISIBILITY



USA.gov is the U.S. government's official web portal to all federal, state and local government web resources and services.